Index of /20260424/WXO-DD/model_gdps/15km/12/052
Name Last modified Size Description
Parent Directory -
20260424T12Z_MSC_GDPS_AirTemp_AGL-120m_LatLon0.15_PT052H.grib2 2026-04-24 15:59 915K
20260424T12Z_MSC_GDPS_AirTemp_AGL-2m_LatLon0.15_PT052H.grib2 2026-04-24 15:59 1.0M
20260424T12Z_MSC_GDPS_AirTemp_AGL-40m_LatLon0.15_PT052H.grib2 2026-04-24 15:59 820K
20260424T12Z_MSC_GDPS_AirTemp_AGL-80m_LatLon0.15_PT052H.grib2 2026-04-24 15:59 926K
20260424T12Z_MSC_GDPS_Albedo_Sfc_LatLon0.15_PT052H.grib2 2026-04-24 15:59 245K
20260424T12Z_MSC_GDPS_ConvectivePrecip-Accum_Sfc_LatLon0.15_PT052H.grib2 2026-04-24 15:59 3.0M
20260424T12Z_MSC_GDPS_DewPointDepression_AGL-2m_LatLon0.15_PT052H.grib2 2026-04-24 15:59 764K
20260424T12Z_MSC_GDPS_DewPoint_AGL-2m_LatLon0.15_PT052H.grib2 2026-04-24 15:59 613K
20260424T12Z_MSC_GDPS_DownwardLongwaveRadiationFlux-Accum_Sfc_LatLon0.15_PT052H.grib2 2026-04-24 15:59 838K
20260424T12Z_MSC_GDPS_DownwardShortwaveRadiationFlux-Accum_Sfc_LatLon0.15_PT052H.grib2 2026-04-24 15:59 1.1M
20260424T12Z_MSC_GDPS_FreezingRain-Accum1h_Sfc_LatLon0.15_PT052H.grib2 2026-04-24 15:59 56K
20260424T12Z_MSC_GDPS_FreezingRain-Accum_Sfc_LatLon0.15_PT052H.grib2 2026-04-24 15:59 304K
20260424T12Z_MSC_GDPS_IcePellets-Accum1h_Sfc_LatLon0.15_PT052H.grib2 2026-04-24 15:59 15K
20260424T12Z_MSC_GDPS_IcePellets-Accum_Sfc_LatLon0.15_PT052H.grib2 2026-04-24 15:59 100K
20260424T12Z_MSC_GDPS_LatentHeatNetFlux_Sfc_LatLon0.15_PT052H.grib2 2026-04-24 15:59 697K
20260424T12Z_MSC_GDPS_NetLongwaveRadiationFlux-Accum_Sfc_LatLon0.15_PT052H.grib2 2026-04-24 15:59 1.2M
20260424T12Z_MSC_GDPS_NetShortwaveRadiationFlux-Accum_Sfc_LatLon0.15_PT052H.grib2 2026-04-24 15:59 1.0M
20260424T12Z_MSC_GDPS_O3MixingRatio_LatLon0.15_PT052H.grib2 2026-04-24 16:49 2.3M
20260424T12Z_MSC_GDPS_O3_EAtm_LatLon0.15_PT052H.grib2 2026-04-24 16:49 2.5M
20260424T12Z_MSC_GDPS_PlanetaryBoundaryLayerHeight_Sfc_LatLon0.15_PT052H.grib2 2026-04-24 15:59 2.5M
20260424T12Z_MSC_GDPS_Precip-Accum1h_Sfc_LatLon0.15_PT052H.grib2 2026-04-24 15:59 3.5M
20260424T12Z_MSC_GDPS_Precip-Accum_Sfc_LatLon0.15_PT052H.grib2 2026-04-24 15:59 4.6M
20260424T12Z_MSC_GDPS_PrecipRate_Sfc_LatLon0.15_PT052H.grib2 2026-04-24 15:59 3.2M
20260424T12Z_MSC_GDPS_Pressure_MSL_LatLon0.15_PT052H.grib2 2026-04-24 15:59 726K
20260424T12Z_MSC_GDPS_Pressure_Sfc_LatLon0.15_PT052H.grib2 2026-04-24 15:59 1.1M
20260424T12Z_MSC_GDPS_RadiativeTemp_Sfc_LatLon0.15_PT052H.grib2 2026-04-24 15:59 670K
20260424T12Z_MSC_GDPS_Rain-Accum1h_Sfc_LatLon0.15_PT052H.grib2 2026-04-24 15:59 1.8M
20260424T12Z_MSC_GDPS_Rain-Accum_Sfc_LatLon0.15_PT052H.grib2 2026-04-24 15:59 3.5M
20260424T12Z_MSC_GDPS_RelativeHumidity_AGL-2m_LatLon0.15_PT052H.grib2 2026-04-24 15:59 1.0M
20260424T12Z_MSC_GDPS_Runoff-Accum_Sfc_LatLon0.15_PT052H.grib2 2026-04-24 15:59 120K
20260424T12Z_MSC_GDPS_SensibleHeatNetFlux_Sfc_LatLon0.15_PT052H.grib2 2026-04-24 15:59 475K
20260424T12Z_MSC_GDPS_Snow-Accum1h_Sfc_LatLon0.15_PT052H.grib2 2026-04-24 15:59 1.1M
20260424T12Z_MSC_GDPS_Snow-Accum_Sfc_LatLon0.15_PT052H.grib2 2026-04-24 15:59 2.0M
20260424T12Z_MSC_GDPS_SnowDepth_Sfc_LatLon0.15_PT052H.grib2 2026-04-24 15:59 1.8M
20260424T12Z_MSC_GDPS_SoilTemp_DBS-0to10cm_LatLon0.15_PT052H.grib2 2026-04-24 15:59 505K
20260424T12Z_MSC_GDPS_SoilTemp_Sfc_LatLon0.15_PT052H.grib2 2026-04-24 15:59 577K
20260424T12Z_MSC_GDPS_SoilVolumetricWaterContent_DBS-0to10cm_LatLon0.15_PT052H.grib2 2026-04-24 15:59 567K
20260424T12Z_MSC_GDPS_SoilVolumetricWaterContent_DBS-0to1cm_LatLon0.15_PT052H.grib2 2026-04-24 15:59 649K
20260424T12Z_MSC_GDPS_SpecificHumidity_AGL-120m_LatLon0.15_PT052H.grib2 2026-04-24 15:59 1.1M
20260424T12Z_MSC_GDPS_SpecificHumidity_AGL-2m_LatLon0.15_PT052H.grib2 2026-04-24 15:59 1.2M
20260424T12Z_MSC_GDPS_SpecificHumidity_AGL-40m_LatLon0.15_PT052H.grib2 2026-04-24 15:59 1.1M
20260424T12Z_MSC_GDPS_SpecificHumidity_AGL-80m_LatLon0.15_PT052H.grib2 2026-04-24 15:59 1.1M
20260424T12Z_MSC_GDPS_SpecificHumidity_Sfc_LatLon0.15_PT052H.grib2 2026-04-24 15:59 587K
20260424T12Z_MSC_GDPS_TotalCloudCover_Sfc_LatLon0.15_PT052H.grib2 2026-04-24 15:59 838K
20260424T12Z_MSC_GDPS_UVIndex-ClearSky_Sfc_LatLon0.15_PT052H.grib2 2026-04-24 16:49 1.0M
20260424T12Z_MSC_GDPS_UVIndex_Sfc_LatLon0.15_PT052H.grib2 2026-04-24 16:49 1.5M
20260424T12Z_MSC_GDPS_UpwardLongwaveRadiationFlux_NTAtm_LatLon0.15_PT052H.grib2 2026-04-24 15:59 839K
20260424T12Z_MSC_GDPS_WindDir_AGL-10m_LatLon0.15_PT052H.grib2 2026-04-24 15:59 1.3M
20260424T12Z_MSC_GDPS_WindDir_AGL-120m_LatLon0.15_PT052H.grib2 2026-04-24 15:59 1.4M
20260424T12Z_MSC_GDPS_WindDir_AGL-40m_LatLon0.15_PT052H.grib2 2026-04-24 15:59 1.4M
20260424T12Z_MSC_GDPS_WindDir_AGL-80m_LatLon0.15_PT052H.grib2 2026-04-24 15:59 1.4M
20260424T12Z_MSC_GDPS_WindDir_IsbL-0700_LatLon0.15_PT052H.grib2 2026-04-24 15:59 1.6M
20260424T12Z_MSC_GDPS_WindGust-Max_AGL-10m_LatLon0.15_PT052H.grib2 2026-04-24 15:59 2.3M
20260424T12Z_MSC_GDPS_WindGust-Min_AGL-10m_LatLon0.15_PT052H.grib2 2026-04-24 15:59 2.2M
20260424T12Z_MSC_GDPS_WindGust_AGL-10m_LatLon0.15_PT052H.grib2 2026-04-24 15:59 2.2M
20260424T12Z_MSC_GDPS_WindSpeed_AGL-10m_LatLon0.15_PT052H.grib2 2026-04-24 15:59 1.1M
20260424T12Z_MSC_GDPS_WindSpeed_AGL-120m_LatLon0.15_PT052H.grib2 2026-04-24 15:59 1.3M
20260424T12Z_MSC_GDPS_WindSpeed_AGL-40m_LatLon0.15_PT052H.grib2 2026-04-24 15:59 1.2M
20260424T12Z_MSC_GDPS_WindSpeed_AGL-80m_LatLon0.15_PT052H.grib2 2026-04-24 15:59 1.2M
20260424T12Z_MSC_GDPS_WindSpeed_IsbL-0700_LatLon0.15_PT052H.grib2 2026-04-24 15:59 1.6M
20260424T12Z_MSC_GDPS_WindU_AGL-10m_LatLon0.15_PT052H.grib2 2026-04-24 15:59 1.3M
20260424T12Z_MSC_GDPS_WindU_AGL-120m_LatLon0.15_PT052H.grib2 2026-04-24 15:59 1.0M
20260424T12Z_MSC_GDPS_WindU_AGL-40m_LatLon0.15_PT052H.grib2 2026-04-24 15:59 1.0M
20260424T12Z_MSC_GDPS_WindU_AGL-80m_LatLon0.15_PT052H.grib2 2026-04-24 15:59 1.0M
20260424T12Z_MSC_GDPS_WindU_IsbL-0700_LatLon0.15_PT052H.grib2 2026-04-24 15:59 1.2M
20260424T12Z_MSC_GDPS_WindV_AGL-10m_LatLon0.15_PT052H.grib2 2026-04-24 15:59 1.6M
20260424T12Z_MSC_GDPS_WindV_AGL-120m_LatLon0.15_PT052H.grib2 2026-04-24 15:59 1.0M
20260424T12Z_MSC_GDPS_WindV_AGL-40m_LatLon0.15_PT052H.grib2 2026-04-24 15:59 1.0M
20260424T12Z_MSC_GDPS_WindV_AGL-80m_LatLon0.15_PT052H.grib2 2026-04-24 15:59 1.0M
20260424T12Z_MSC_GDPS_WindV_IsbL-0700_LatLon0.15_PT052H.grib2 2026-04-24 15:59 1.2M